www.pogodaiklimat.ru

Погода и климат >> Архив погоды >> Россия >> Северная Осетия >> Владикавказ


АРХИВ ПОГОДЫ в Владикавказе

Время (UTC), дата Ветер
(напр.,м/с)
 
Видим.   Явления Облачность Т
(С)
Тd
(С)
f
(%)
Тe
(С)
Тes
(С)
Комфортность P
(гПа)
Po
(гПа)
Тmin
(С)
Tmax
(С)
R
(мм)
R24
(мм)
S
(см)
18 15.04 З 1 10 км 9/9 600 м
[Sc]
+12.0 +8.1 77 +12 +12 тепло 1013.0 931.9
21 15.04 СЗ 1 10 км 10/10 600 м
[Cb cap]
+11.2 +8.1 81 +11 +11 тепло 1011.7 930.5
00 16.04 штиль 0 10 км {ливн. осадки} 10/10 600 м
[Cb cap]
+9.8 +8.0 89 +9 +9 тепло 1010.6 929.1
03 16.04 З 2 10 км 10/10 600 м
[Cb cap]
+9.7 +8.0 89 +8 +8 по сезону 1011.4 929.8 +9.6 1
06 16.04 СЗ 2 10 км {дождь} 10/10 300 м
[Sc]
+10.7 +8.5 86 +9 +9 по сезону 1011.6 930.3
09 16.04 СЗ 2 2000 м слаб. дождь 10/10 300 м
[Frnb Ns]
+10.2 +8.0 86 +9 +9 прохладно 1012.0 930.5
12 16.04 З 1 2000 м слаб. дождь 10/10 300 м
[Frnb Ns]
+10.3 +8.4 88 +10 +10 прохладно 1011.6 930.2
15 16.04 Ю 1 2000 м ливневой дождь 10/10 300 м
[Cb calv]
+9.8 +8.4 91 +9 +9 прохладно 1011.6 930.1 +11.0 6
18 16.04 штиль 0 2000 м ливневой дождь 10/10 300 м
[Cb calv]
+9.1 +7.7 91 +8 +8 по сезону 1012.8 931.0
21 16.04 З 1 2000 м слаб. ливневой дождь 10/10 300 м
[Cb calv]
+8.2 +6.7 90 +7 +7 по сезону 1012.2 930.2
00 17.04 Ю 1 2000 м слаб. ливневой дождь 10/10 300 м
[Cb calv]
+7.2 +5.1 86 +6 +6 по сезону 1011.4 929.1
03 17.04 Ю 1 4000 м слаб. ливневой дождь 10/10 600 м
[Cb calv]
+6.7 +4.9 88 +6 +6 по сезону 1011.1 928.7 +6.7 16
06 17.04 Ю 1 4000 м дождь {ливн. осадки} 10/0
[As op]
+7.0 +5.0 87 +6 +8 прохладно 1010.5 928.2
09 17.04 Ю 2 4000 м слаб. дождь 10/10 300 м
[Frnb Ns]
+6.9 +4.5 85 +5 +5 холодно 1010.2 927.9
12 17.04 Ю 2 4000 м слаб. дождь 10/10 300 м
[Frnb Ns]
+7.4 +5.2 86 +5 +5 очень
холодно
1010.3 928.1
15 17.04 Ю 1 4000 м слаб. дождь 10/10 300 м
[Frnb Ns]
+7.2 +5.2 87 +6 +6 холодно 1011.0 928.7 +7.7 13
18 17.04 ЮВ 2 4000 м слаб. ливневой дождь 10/10 300 м
[Cb cap]
+6.7 +4.9 88 +4 +4 холодно 1012.3 929.8
21 17.04 СЗ 2 4000 м ливневой дождь 10/10 300 м
[Cb cap]
+4.5 +3.2 91 +2 +2 холодно 1015.4 932.0
00 18.04 СЗ 1 4000 м слаб. ливневой дождь 10/10 300 м
[Cb cap]
+2.5 +1.3 92 +1 +1 холодно 1017.1 932.9
03 18.04 З 1 4000 м ливневой снег [диам. отлож. мокр. снега 3 мм] 10/10 300 м
[]
+0.3 -0.8 92 -2 -2 очень
холодно
1019.7 934.6 +0.3 20
06 18.04 СЗ 2 2000 м слаб. ливневой снег 9/8 600 м
[Cb cap As trans]
+0.9 -0.6 90 -3 -1 очень
холодно
1021.1 936.1 +0.2
09 18.04 СЗ 2 2000 м слаб. ливневой снег 10/8 600 м
[Cb calv As op]
+2.1 0.0 86 -1 -0 очень
холодно
1021.2 936.5
12 18.04 СЗ 2 2000 м слаб. ливневой дождь 10/10 600 м
[Cb calv]
+2.5 +0.6 87 -1 -1 очень
холодно
1021.4 936.8
15 18.04 СЗ 2 2000 м слаб. ливневой дождь 10/10 300 м
[Cb calv]
+1.4 -0.1 90 -2 -2 очень
холодно
1022.1 937.1 +2.6 6
18 18.04 З 1 2000 м слаб. морось 10/10 300 м
[St]
+0.5 -0.6 92 -2 -2 очень
холодно
1023.4 938.1
21 18.04 З 1 2000 м в посл. час морось 10/8 300 м
[St As op]
+0.2 -1.1 91 -2 -2 очень
холодно
1022.9 937.5
00 19.04 СЗ 1 4000 м дымка 10/10 300 м
[St]
+0.6 -0.9 90 -1 -1 холодно 1021.3 936.2
03 19.04 С 1 4000 м дымка 10/10 300 м
[St]
+0.8 -0.8 89 -1 -1 очень
холодно
1020.9 935.9 +0.1 0.8
06 19.04 СЗ 1 4000 м в посл. час морось 10/10 300 м
[St]
+1.7 -0.2 87 -0 -0 очень
холодно
1020.8 936.1
09 19.04 В 3 4000 м слаб. морось 10/10 300 м
[St]
+2.3 -0.3 83 -2 -2 очень
холодно
1020.7 936.1
12 19.04 В 2 4000 м слаб. морось 10/10 300 м
[St]
+2.9 +0.1 82 -0 -0 очень
холодно
1020.4 936.0
15 19.04 В 1 4000 м дымка 10/10 600 м
[Sc]
+2.7 -0.7 78 +1 +1 очень
холодно
1020.7 936.2 +3.2 0.4
18 19.04 В 1 4000 м дымка 10/10 300 м
[Sc]
+2.3 -0.5 82 +1 +1 очень
холодно
1022.0 937.3
21 19.04 В 2 4000 м дымка 10/10 600 м
[Sc]
+1.7 -0.4 86 -2 -2 очень
холодно
1021.0 936.2
00 20.04 В 2 4000 м слаб. ливневой дождь 10/10 600 м
[Cb cap]
+1.2 -0.7 87 -2 -2 очень
холодно
1020.4 935.5
03 20.04 С 1 2000 м слаб. ливневой снег 10/10 300 м
[Cb cap]
+0.4 -1.2 89 -2 -2 очень
холодно
1020.8 935.6 +0.3 1
06 20.04 СЗ 1 2000 м слаб. ливневой снег 10/10 300 м
[Cb cap]
+1.1 -0.4 90 -1 -1 очень
холодно
1021.5 936.5
09 20.04 СЗ 2 2000 м слаб. ливневой дождь 10/10 300 м
[Cb cap]
+2.4 +0.2 85 -1 -1 очень
холодно
1021.6 937.0
12 20.04 В 2 4000 м в посл. час ливневой дождь 10/10 300 м
[Cb cap]
+4.1 +0.5 77 +1 +1 очень
холодно
1021.4 937.3
15 20.04 штиль 0 4000 м слаб. ливневой дождь 10/10 300 м
[Cb cap]
+3.2 +0.2 81 +2 +2 очень
холодно
1022.3 937.9 +4.4 4
18 20.04 штиль 0 10 км {ливн. осадки} 9/6 300 м
[Frnb As trans]
+1.4 -0.2 89 0 0 очень
холодно
1023.7 938.6
21 20.04 штиль 0 10 км 9/0
[Ac trans]
-0.1 -1.4 91 -1 -1 очень
холодно
1023.2 937.7
00 21.04 штиль 0 10 км 5/0
[Ac As]
-0.5 -1.6 92 -2 -2 очень
холодно
1021.9 936.4
03 21.04 штиль 0 20 км 5/3 600 м
[Sc Ac As]
-0.3 -1.4 92 -2 -1 очень
холодно
1022.0 936.5 -0.8 0.5
06 21.04 Ю 1 10 км 8/8 600 м
[Cu Sc Ac cast]
+4.0 -1.8 66 +3 +5 холодно 1020.7 936.6
09 21.04 СЗ 1 10 км 10/10 600 м
[Sc]
+5.3 -1.3 62 +5 +5 холодно 1020.3 936.7
12 21.04 СВ 1 10 км 10/10 600 м
[Sc]
+6.0 -0.7 62 +5 +5 очень
холодно
1020.2 936.7
15 21.04 З 1 10 км 10/10 600 м
[Sc]
+5.2 -0.8 65 +4 +4 очень
холодно
1020.6 936.9 +6.2
18 21.04 штиль 0 10 км слаб. морось 10/10 300 м
[St]
+3.5 +1.0 84 +3 +3 холодно 1022.0 937.7
21 21.04 Ю 1 10 км {морось} 10/10 600 м
[Sc]
+3.4 +1.5 87 +2 +2 холодно 1021.3 937.1
00 22.04 штиль 0 10 км {морось} 10/10 600 м
[Sc]
+3.4 +1.3 86 +2 +2 прохладно 1020.5 936.3
03 22.04 З 1 4000 м дымка 10/10 600 м
[Sc]
+3.3 +1.0 85 +2 +2 холодно 1020.9 936.6 +3.1 0.0
06 22.04 З 1 4000 м дымка 10/10 300 м
[Sc]
+3.8 +1.5 85 +2 +2 очень
холодно
1021.8 937.6
09 22.04 З 2 4000 м слаб. дождь 10/10 300 м
[Frnb Ns]
+4.2 +2.0 86 +1 +1 очень
холодно
1022.2 938.1
12 22.04 СЗ 1 10 км {дождь} 10/10 300 м
[Sc]
+5.6 +1.9 77 +5 +5 очень
холодно
1022.2 938.5
15 22.04 З 1 10 км 10/10 600 м
[Sc]
+5.5 +2.0 78 +4 +4 очень
холодно
1022.9 939.1 +5.8 0.3

 

Местоположение метеостанции Владикавказ (Северная Осетия, Россия): широта 43.03 долгота 44.68 высота над уровнем моря 703 м.

В архиве по умолчанию представлена погода в Владикавказе за последнюю неделю. Архивные данные за месяц целиком и за предыдущие месяцы, начиная с января 2011 года, Вы можете получить, выбрав интересующий диапазон дат из раскрывающегося списка и нажав кнопку "Ввод!".


*Определитесь, кто Вы:
робот инопланетянин человек

Внимание! Время в таблицах - всемирное. Для получения местного времени необходимо прибавить поправку, которая равна 3 ч.

Смотрите также архив погоды в соседних городах и на ближайших метеорологических станциях:

Погода в Назрани (Ингушетия, Россия) (19 км)
Погода в Алагире (Северная Осетия, Россия) (35 км)
Погода на Рокском Перевале (Северная Осетия, Россия) (66 км)
Погода в Наре (Северная Осетия, Россия) (68 км)
Погода в Пасанаури (Грузия) (76 км)
Погода в Моздоке (Северная Осетия, Россия) (78 км)
Погода в Шатое (Чечня, Россия) (83 км)
Погода в Наурской (Чечня, Россия) (86 км)
Погода в Грозном (Чечня, Россия) (88 км)
Погода в Прохладный (Кабардино-Балкария, Россия) (95 км)

Пояснения к столбцам:

Ветер - указаны скорость ветра в м/с - средняя за 10 мин, порывы в срок и между сроками (в фигурных скобках) и направление, откуда дует ветер: С - северный, СВ - северо-восточный, В - восточный, ЮВ - юго-восточный, Ю - южный, ЮЗ - юго-западный, З - западный, СЗ - северо-западный.
Видимость - горизонтальная дальность видимости в метрах или километрах. При видимости от 1 до 10 км при отсутствии осадков обычно наблюдается дымка, при ухудшении видимости до 1 км и менее - туман. В сухую погоду видимость может ухудшаться дымом, пылью или мглою.
Явления - указаны атмосферные явления, наблюдавшиеся в срок или в последний час перед сроком; фигурными скобками обозначены явления, наблюдавшиеся между сроками (за 1-3 часа до срока); квадратными скобками обозначены град или гололедные отложения с указанием их диаметра в мм.
Облачность - указаны через наклонную черту общая и нижняя облачность в баллах и высота нижней границы облаков в метрах; квадратными скобками обозначены формы облаков: Ci - перистые, Cs - перисто-слоистые, Cc - перисто-кучевые, Ac - высококучевые, As - высокослоистые, Sc - слоисто-кучевые, Ns - слоисто-дождевые, Cu - кучевые, Cb - кучево-дождевые. Подробнее классификацию облаков см. в Атласе облаков (PDF).
T - Температура воздуха - температура, измеренная на высоте 2 м над землей.
Td - Температура точки росы - температура, при понижении до которой содержащийся в воздухе водяной пар достигнет насыщения.
f - Относительная влажность воздуха - влажноcть воздуха, измеренная на высоте 2 м над землей.
Te - Эффективная температура - температура, которую ощущает одетый по сезону человек в тени. Характеристика душности погоды. При расчете учитывается влияние влажности воздуха и скорости ветра на теплоощущения человека.
Tes - Эффективная температура на солнце - температура, которую ощущает человек, с поправкой на солнечный нагрев. Характеристика знойности погоды. Зависит от высоты солнца над горизонтом, облачности и скорости ветра. Ночью, в пасмурную погоду, а также при ветре 12 м/с и более поправка равна нулю.
P - Атмосферное давление - приведенное к уровню моря атмосферное давление.
Po - Атмосферное давление - измеренное на уровне метеостанции атмосферное давление.
Tmin - Минимальная температура - минимум температуры воздуха на высоте 2 м над землей.
Tmax - Максимальная температура - максимум температуры воздуха на высоте 2 м над землей.
R - Количество осадков - Количество выпавших осадков за период времени, мм. При наведении курсора мыши на число - период времени, за который выпало указанное количество осадков.
R24 - Количество осадков - Количество выпавших осадков за 24 часа, мм.
S - Снежный покров - Высота снежного покрова, см. При наведении курсора мыши на число - состояние снежного покрова и степень покрытия местности в баллах.